Alexander City, AL

8:04 PM CST on February 09, 2016 (GMT -0600)
Russell

Weather History for KALX - November, 2012

Change the Weather History Date:

Friday, November 2, 2012

  Actual Average (KAUO) Record (KAUO)
Temperature  
Mean Temperature 59 °F -  
Max Temperature 79 °F - - ()
Min Temperature 39 °F - - ()
Degree Days  
Heating Degree Days 6    
Month to date heating degree days  
Since 1 July heating degree days  
Cooling Degree Days 0    
Month to date cooling degree days  
Year to date cooling degree days  
Growing Degree Days 9 (Base 50)    
Moisture  
Dew Point 44 °F    
Average Humidity 66    
Maximum Humidity 89    
Minimum Humidity 28    
Precipitation  
Precipitation 0.00 in - - ()
Month to date precipitation  
Year to date precipitation  
Sea Level Pressure  
Sea Level Pressure 30.01 in    
Wind  
Wind Speed 2 mph (West)    
Max Wind Speed 13 mph    
Max Gust Speed 20 mph    
Visibility 10 miles    
Events      
T = Trace of Precipitation, MM = Missing Value Source: NWS Daily Summary

Daily Weather History Graph

Daily Weather History Graph

Search for Another Location

Airport or City:

Trip Planner

Search our weather history database for the weather conditions in past years. The results will help you decide how hot, cold, wet, or windy it might be!

Date:

Astronomy

Nov. 02, 2012 Rise Set
Actual Time 7:03 AM CDT 5:51 PM CDT
Civil Twilight 6:37 AM CDT 6:16 PM CDT
Nautical Twilight 6:08 AM CDT 6:46 PM CDT
Astronomical Twilight 5:39 AM CDT 7:15 PM CDT
Moon 8:44 PM CDT (11/2) 10:16 AM CDT (11/2)
Length of Visible Light 11h 39m
Length of Day
10h 48m
Waning Gibbous, 87% of the Moon is Illuminated
Nov 2
Waning Gibbous
Nov 6
Last Quarter
Nov 13
New
Nov 20
First Quarter
Nov 28
Full

Hourly Weather History & Observations

Time (CDT) Temp. Dew Point Humidity Pressure Visibility Wind Dir Wind Speed Gust Speed Precip Events Conditions
12:15 AM 41.5 °F 37.2 °F 85% 30.02 in 10.0 mi Calm Calm - N/A   Clear
12:35 AM 42.8 °F 38.3 °F 84% 30.02 in 10.0 mi Calm Calm - N/A   Clear
12:55 AM 42.1 °F 37.8 °F 85% 30.01 in 10.0 mi Calm Calm - N/A   Clear
1:15 AM 42.1 °F 37.2 °F 83% 30.01 in 10.0 mi Calm Calm - N/A   Clear
1:35 AM 40.3 °F 36.1 °F 85% 30.01 in 10.0 mi Calm Calm - N/A   Clear
1:55 AM 42.4 °F 38.3 °F 85% 30.01 in 10.0 mi Calm Calm - N/A   Clear
2:15 AM 41.9 °F 38.1 °F 86% 30.01 in 10.0 mi Calm Calm - N/A   Clear
2:35 AM 41.0 °F 37.4 °F 87% 30.01 in 10.0 mi Calm Calm - N/A   Clear
2:55 AM 39.6 °F 36.0 °F 87% 30.01 in 10.0 mi Calm Calm - N/A   Clear
3:15 AM 39.6 °F 36.0 °F 87% 30.01 in 10.0 mi Calm Calm - N/A   Clear
3:35 AM 39.6 °F 36.3 °F 88% 30.01 in 10.0 mi Calm Calm - N/A   Clear
3:55 AM 40.5 °F 36.9 °F 87% 30.01 in 10.0 mi Calm Calm - N/A   Clear
4:15 AM 39.6 °F 36.1 °F 88% 30.01 in 10.0 mi Calm Calm - N/A   Clear
4:35 AM 39.6 °F 36.0 °F 87% 30.01 in 10.0 mi Calm Calm - N/A   Clear
4:55 AM 39.6 °F 36.3 °F 88% 30.01 in 10.0 mi Calm Calm - N/A   Clear
5:15 AM 39.7 °F 36.5 °F 88% 30.01 in 10.0 mi Calm Calm - N/A   Clear
5:35 AM 39.6 °F 36.3 °F 88% 30.02 in 10.0 mi Calm Calm - N/A   Clear
5:55 AM 41.0 °F 37.4 °F 87% 30.02 in 10.0 mi Calm Calm - N/A   Clear
6:15 AM 39.9 °F 36.3 °F 87% 30.02 in 10.0 mi Calm Calm - N/A   Clear
6:35 AM 39.6 °F 36.1 °F 88% 30.02 in 10.0 mi Calm Calm - N/A   Clear
6:55 AM 39.6 °F 36.1 °F 88% 30.02 in 10.0 mi Calm Calm - N/A   Clear
7:15 AM 39.6 °F 36.5 °F 89% 30.02 in 10.0 mi Calm Calm - N/A   Clear
7:35 AM 41.0 °F 37.2 °F 86% 30.03 in 10.0 mi Calm Calm - N/A   Clear
7:55 AM 42.1 °F 38.3 °F 86% 30.04 in 10.0 mi Calm Calm - N/A   Clear
8:15 AM 43.3 °F 39.4 °F 86% 30.04 in 10.0 mi Calm Calm - N/A   Clear
8:35 AM 49.6 °F 45.3 °F 85% 30.05 in 10.0 mi Calm Calm - N/A   Clear
8:55 AM 54.7 °F 45.5 °F 71% 30.05 in 10.0 mi Calm Calm - N/A   Clear
9:15 AM 57.2 °F 45.1 °F 64% 30.05 in 10.0 mi Calm Calm - N/A   Clear
9:35 AM 59.9 °F 46.0 °F 60% 30.05 in 10.0 mi Calm Calm - N/A   Clear
9:55 AM 62.2 °F 45.9 °F 55% 30.05 in 10.0 mi Calm Calm - N/A   Clear
10:15 AM 67.5 °F 48.4 °F 50% 30.05 in 10.0 mi SSW 4.6 mph - N/A   Clear
10:35 AM 69.8 °F 48.4 °F 46% 30.04 in 10.0 mi WSW 8.1 mph - N/A   Clear
10:55 AM 71.4 °F 48.2 °F 44% 30.04 in 10.0 mi WSW 9.2 mph - N/A   Clear
11:15 AM 72.9 °F 48.6 °F 42% 30.04 in 10.0 mi West 8.1 mph - N/A   Clear
11:35 AM 74.8 °F 48.6 °F 39% 30.04 in 10.0 mi West 11.5 mph 16.1 mph N/A   Clear
11:55 AM 74.8 °F 47.8 °F 38% 30.03 in 10.0 mi West 12.7 mph 17.3 mph N/A   Clear
12:15 PM 74.8 °F 48.2 °F 39% 30.02 in 10.0 mi West 9.2 mph 16.1 mph N/A   Clear
12:35 PM 74.8 °F 48.4 °F 39% 30.01 in 10.0 mi WSW 6.9 mph 16.1 mph N/A   Clear
12:55 PM 76.6 °F 49.8 °F 39% 30.00 in 10.0 mi WSW 8.1 mph 16.1 mph N/A   Clear
1:15 PM 77.4 °F 49.6 °F 38% 30.00 in 10.0 mi WSW 11.5 mph 18.4 mph N/A   Clear
1:35 PM 77.4 °F 48.4 °F 36% 29.99 in 10.0 mi WSW 8.1 mph - N/A   Clear
1:55 PM 78.1 °F 47.3 °F 34% 29.98 in 10.0 mi West 10.4 mph 19.6 mph N/A   Clear
2:15 PM 79.9 °F 48.6 °F 33% 29.97 in 10.0 mi West 8.1 mph 16.1 mph N/A   Clear
2:35 PM 79.9 °F 48.2 °F 33% 29.97 in 10.0 mi WSW 10.4 mph 17.3 mph N/A   Clear
2:55 PM 79.9 °F 45.5 °F 30% 29.97 in 10.0 mi West 6.9 mph - N/A   Clear
3:15 PM 79.9 °F 44.4 °F 28% 29.97 in 10.0 mi NW 8.1 mph - N/A   Clear
3:35 PM 79.9 °F 45.1 °F 29% 29.97 in 10.0 mi West 6.9 mph - N/A   Clear
3:55 PM 79.9 °F 45.5 °F 30% 29.96 in 10.0 mi West 11.5 mph 16.1 mph N/A   Clear
4:15 PM 79.9 °F 45.3 °F 29% 29.97 in 10.0 mi West 6.9 mph - N/A   Clear
4:35 PM 79.9 °F 45.5 °F 30% 29.97 in 10.0 mi West 5.8 mph - N/A   Clear
4:55 PM 79.9 °F 45.7 °F 30% 29.97 in 10.0 mi WNW 4.6 mph - N/A   Clear
5:15 PM 77.4 °F 44.6 °F 31% 29.97 in 10.0 mi WNW 4.6 mph - N/A   Clear
5:35 PM 76.6 °F 46.9 °F 35% 29.98 in 10.0 mi West 3.5 mph - N/A   Clear
5:55 PM 70.9 °F 50.2 °F 48% 29.98 in 10.0 mi Calm Calm - N/A   Clear
6:15 PM 69.8 °F 52.7 °F 54% 29.99 in 10.0 mi Calm Calm - N/A   Clear
6:35 PM 64.8 °F 51.1 °F 61% 30.00 in 10.0 mi Calm Calm - N/A   Clear
6:55 PM 62.8 °F 50.9 °F 65% 30.00 in 10.0 mi Calm Calm - N/A   Clear
7:15 PM 62.2 °F 51.8 °F 69% 30.01 in 10.0 mi Calm Calm - N/A   Clear
7:35 PM 59.9 °F 51.6 °F 74% 30.01 in 10.0 mi Calm Calm - N/A   Clear
7:55 PM 60.1 °F 51.3 °F 73% 30.01 in 10.0 mi Calm Calm - N/A   Clear
8:15 PM 59.9 °F 52.7 °F 77% 30.01 in 10.0 mi West 3.5 mph - N/A   Clear
8:35 PM 57.2 °F 50.5 °F 78% 30.02 in 10.0 mi Calm Calm - N/A   Clear
8:55 PM 57.2 °F 51.8 °F 82% 30.02 in 10.0 mi Calm Calm - N/A   Clear
9:15 PM 54.7 °F 49.3 °F 82% 30.02 in 10.0 mi Calm Calm - N/A   Clear
9:35 PM 54.7 °F 50.0 °F 84% 30.03 in 10.0 mi Calm Calm - N/A   Clear
9:55 PM 54.7 °F 50.7 °F 86% 30.03 in 10.0 mi Calm Calm - N/A   Clear
10:15 PM 54.7 °F 50.2 °F 85% 30.03 in 10.0 mi Calm Calm - N/A   Clear
10:35 PM 54.7 °F 50.9 °F 87% 30.04 in 10.0 mi Calm Calm - N/A   Clear
10:55 PM 54.7 °F 51.1 °F 88% 30.04 in 10.0 mi Calm Calm - N/A   Clear
11:15 PM 54.7 °F 50.9 °F 87% 30.04 in 10.0 mi Calm Calm - N/A   Clear
11:35 PM 50.0 °F 45.9 °F 86% 30.04 in 10.0 mi Calm Calm - N/A   Clear
11:55 PM 54.7 °F 51.4 °F 89% 30.04 in 10.0 mi Calm Calm - N/A   Clear